NNS 30050

operational
NORAD ID: 1514 Int'l Des: 1965-065 Owner: BUWEPS Country: US
LEOCIRCULARPOLARONEWEB_TYPE
追跡 地上

NNS 30050について

説明を読み込み中...

リアルタイム位置

3D地球を読み込み中...

次回通過

高度履歴

Altitude vs Time

uPlot chart will show altitude changes over time

軌道要素

1 01514U 65065F 26072.32934597 .00000115 00000-0 20421-3 0 9991
2 01514 89.9879 227.9358 0071634 71.4573 355.1015 13.35352052948478
Epoch: Mar 13, 2026 • Age: 32 hours

現在のステータス

高度 1125.3 km
速度 7.29 km/s
衛星直下点 25.79°N, 120.24°E
タイプ other

大規模コンステレーション

Loading constellations...